TimeCDT,TemperatureF,Dew PointF,Humidity,Sea Level PressureIn,VisibilityMPH,Wind Direction,Wind SpeedMPH,Gust SpeedMPH,PrecipitationIn,Events,Conditions,WindDirDegrees,DateUTC
12:51 AM,73.0,66.9,81,29.64,8.0,South,32.2,40.3,N/A,,Overcast,170,2013-03-10 06:51:00
1:47 AM,71.6,66.2,83,29.61,7.0,SSE,28.8,40.3,N/A,,Overcast,160,2013-03-10 07:47:00
1:51 AM,73.0,66.0,79,29.61,7.0,SSE,29.9,40.3,N/A,,Mostly Cloudy,160,2013-03-10 07:51:00
3:23 AM,71.6,66.2,83,29.60,7.0,SSE,26.5,35.7,N/A,,Mostly Cloudy,160,2013-03-10 08:23:00
3:51 AM,72.0,66.0,81,29.60,8.0,South,24.2,-,N/A,,Mostly Cloudy,170,2013-03-10 08:51:00
4:42 AM,71.6,66.2,83,29.63,8.0,South,18.4,-,N/A,,Mostly Cloudy,180,2013-03-10 09:42:00
4:51 AM,73.0,66.9,81,29.68,8.0,WSW,12.7,-,N/A,,Overcast,240,2013-03-10 09:51:00
5:01 AM,73.4,66.2,78,29.70,9.0,WNW,10.4,-,N/A,,Overcast,290,2013-03-10 10:01:00
5:51 AM,73.0,66.0,79,29.70,9.0,SW,5.8,-,0.00,Rain,Light Rain,230,2013-03-10 10:51:00
6:20 AM,71.6,66.2,83,29.72,2.5,West,6.9,-,0.02,Rain,Rain,270,2013-03-10 11:20:00
6:34 AM,71.6,68.0,88,29.73,2.5,WNW,5.8,-,0.04,Rain,Light Rain,290,2013-03-10 11:34:00
6:51 AM,71.1,68.0,90,29.73,2.0,West,3.5,-,0.06,Rain,Light Rain,280,2013-03-10 11:51:00
7:14 AM,71.6,68.0,88,29.74,2.0,Calm,Calm,-,0.00,,Light Drizzle,0,2013-03-10 12:14:00
7:28 AM,69.8,68.0,94,29.74,2.0,Calm,Calm,-,0.00,,Overcast,0,2013-03-10 12:28:00
7:42 AM,69.8,68.0,94,29.75,1.8,Calm,Calm,-,0.00,,Mostly Cloudy,0,2013-03-10 12:42:00
7:51 AM,70.0,66.9,90,29.75,1.8,Calm,Calm,-,0.00,,Overcast,0,2013-03-10 12:51:00
8:15 AM,69.8,66.2,88,29.77,2.0,NW,5.8,-,N/A,,Overcast,310,2013-03-10 13:15:00
8:31 AM,69.8,66.2,88,29.78,2.0,NNW,8.1,-,0.00,Rain,Light Rain,330,2013-03-10 13:31:00
8:51 AM,64.9,61.0,87,29.80,2.0,North,31.1,38.0,0.00,Rain,Light Rain,350,2013-03-10 13:51:00
8:58 AM,62.6,60.8,94,29.81,9.0,North,34.5,41.4,0.00,Rain,Light Rain,360,2013-03-10 13:58:00
9:04 AM,62.6,59.0,88,29.81,10.0,North,32.2,41.4,0.00,Rain,Light Rain,10,2013-03-10 14:04:00
9:49 AM,62.6,55.4,77,29.85,10.0,North,20.7,26.5,0.00,,Overcast,10,2013-03-10 14:49:00
9:51 AM,63.0,55.9,78,29.85,10.0,North,21.9,26.5,0.00,,Overcast,10,2013-03-10 14:51:00
10:51 AM,68.0,55.0,63,29.87,10.0,North,26.5,29.9,N/A,,Mostly Cloudy,10,2013-03-10 15:51:00
11:51 AM,68.0,52.0,56,29.89,10.0,North,23.0,31.1,N/A,,Mostly Cloudy,10,2013-03-10 16:51:00
12:51 PM,71.1,48.9,45,29.91,10.0,North,19.6,27.6,N/A,,Mostly Cloudy,10,2013-03-10 17:51:00
1:51 PM,77.0,46.9,34,29.88,10.0,NE,17.3,26.5,N/A,,Mostly Cloudy,40,2013-03-10 18:51:00
2:51 PM,80.1,39.9,24,29.86,10.0,North,23.0,29.9,N/A,,Scattered Clouds,360,2013-03-10 19:51:00
3:51 PM,81.0,39.9,23,29.86,10.0,NNE,16.1,21.9,N/A,,Mostly Cloudy,20,2013-03-10 20:51:00
4:51 PM,81.0,35.1,19,29.85,10.0,North,18.4,26.5,N/A,,Partly Cloudy,360,2013-03-10 21:51:00
5:51 PM,79.0,30.9,17,29.85,10.0,North,18.4,26.5,N/A,,Partly Cloudy,10,2013-03-10 22:51:00
6:51 PM,75.9,32.0,20,29.88,10.0,North,18.4,-,N/A,,Partly Cloudy,350,2013-03-10 23:51:00
7:51 PM,70.0,35.1,28,29.91,10.0,North,16.1,-,N/A,,Scattered Clouds,10,2013-03-11 00:51:00
8:51 PM,66.9,34.0,30,29.94,10.0,North,13.8,-,N/A,,Scattered Clouds,360,2013-03-11 01:51:00
9:51 PM,66.0,33.1,29,30.01,10.0,North,16.1,-,N/A,,Mostly Cloudy,360,2013-03-11 02:51:00
10:51 PM,64.0,34.0,33,30.06,10.0,North,13.8,-,N/A,,Mostly Cloudy,360,2013-03-11 03:51:00
11:51 PM,63.0,33.1,33,30.07,10.0,North,17.3,25.3,N/A,,Partly Cloudy,360,2013-03-11 04:51:00
12:51 AM,57.9,35.1,42,30.08,10.0,North,11.5,-,N/A,,Partly Cloudy,10,2013-03-11 05:51:00